Other Public Products
Issued by NWS Grand Forks, ND

Home | Current Version | Previous Version | Graphics & Text | Print | Product List | Glossary On
Versions: 1 2 3 4 5 6 7 8 9 10 11 12 13 14 15 16 17 18 19 20 21 22 23 24 25 26 27 28 29 30 31 32 33 34 35 36 37 38 39 40 41 42 43 44 45 46 47 48 49 50
000
FPUS83 KFGF 271431
OPUFGF
PRAIRIE TO PINES WEATHER ROUNDUP
NATIONAL WEATHER SERVICE EASTERN NORTH DAKOTA/GRAND FORKS ND
900 AM CDT THU JUL 27 2017

 **SATELLITE DATA USED TO AUGMENT SKY COVER AT AUTOMATED STATIONS**
 *****  WEATHER ACROSS EASTERN NORTH DAKOTA  *****

CITY           SKY/WX    TMP DP  RH WIND       PRES   REMARKS
GRAND FORKS    PTSUNNY   68  63  84 W3        30.13R
GRAND FORKS AF FAIR      67  61  78 W5        30.14R
GRAND CITY NWS NOT AVBL
BUXTON         NOT AVBL
DEVILS LAKE    FAIR      68  62  81 CALM      30.16F
FARGO          FAIR      70  62  76 NW5       30.14R
WAHPETON ARPT  FAIR      70  61  73 NW5       30.14S
$$

 *****  WEATHER ACROSS CENTRAL AND WESTERN NORTH DAKOTA  *****

CITY           SKY/WX    TMP DP  RH WIND       PRES   REMARKS
JAMESTOWN      FAIR      71  60  68 CALM      30.15F
BISMARCK       PTSUNNY   68  61  78 E5        30.17F
MINOT          FAIR      70  59  68 S7        30.11S
MINOT AFB      FAIR      69  60  72 S5        30.10R
GARRISON         N/A     65  61  87 S5        30.12F
WILLISTON      LGT RAIN  67  59  75 S15G23    30.09R
DICKINSON      FAIR      69  58  67 E17       30.12S
HETTINGER      FAIR      71  54  54 SE14      30.13S
$$

 *****  OTHER OBSERVATIONS NORTHEAST NORTH DAKOTA  *****

CITY           SKY/WX    TMP DP  RH WIND       PRES   REMARKS
WALHALLA       NOT AVBL
LANGDON        FAIR      70  66  88 CALM      30.16F
CAVALIER       FAIR      72  63  73 W6        30.12S
GRAFTON        FAIR      73  61  64 W5        30.14F
CANDO          NOT AVBL
FORT TOTTEN      N/A     65  59  80 SE2       29.95S
ROLLA            N/A     70  61  73 S6        30.16F
RUGBY          NOT AVBL
 ***** THE ABOVE OBSERVATIONS ARE NON NWS ARE NOT QUALITY
        CONTROLLED AND MAY MIS-REPORT RAIN FOR SNOW...
$$

 *****  OTHER OBSERVATIONS SOUTHEAST NORTH DAKOTA *****

CITY           SKY/WX    TMP DP  RH WIND       PRES   REMARKS
COOPERSTOWN    FAIR      68  64  88 CALM      30.17S
VALLEY CITY    FAIR      70  61  73 CALM      30.18S
OAKES          NOT AVBL
GWINNER        SUNNY     72  63  73 CALM      30.16S
SHEYENNE NWR     N/A     71  63  75 N2        29.95
BUFFALO        NOT AVBL
WYNDMERE       NOT AVBL
 ***** THE ABOVE OBSERVATIONS ARE NON NWS ARE NOT QUALITY
       CONTROLLED AND MAY MIS-REPORT RAIN FOR SNOW...
$$

  *****  WEATHER ACROSS NORTHERN MINNESOTA  *****

CITY           SKY/WX    TMP DP  RH WIND       PRES   REMARKS
FLAG ISLAND    FAIR      70  61  73 NW3       30.11R
WARROAD        FAIR      72  66  83 N3        30.13S
ROSEAU         FAIR      70  63  78 CALM      30.12F
HALLOCK        FAIR      70  63  78 CALM      30.12S
THF RVR FALLS  FAIR      68  63  84 SE3       30.15R
HALSTAD          N/A     70  63  77 CALM        N/A
FOSSTON        FAIR      68  61  77 CALM      30.15S
BAUDETTE       FAIR      71  65  81 NW5       30.11R
WASKISH        FAIR      72  63  73 CALM      30.12S
CROOKSTON      FAIR      66  61  82 CALM      30.14S
$$
  *****  WEATHER ACROSS CENTRAL AND WEST MINNESOTA  *****

CITY           SKY/WX    TMP DP  RH WIND       PRES   REMARKS
BEMIDJI        FAIR      71  62  72 CALM      30.14R
PARK RAPIDS    FAIR      74  61  63 VRB5      30.14R
WADENA         FAIR      70  61  73 CALM      30.14R
DETROIT LAKES  FAIR      72  63  73 CALM      30.16R
MOORHEAD       FAIR      70  63  78 N3        30.15R
FERGUS FALLS   FAIR      72  63  73 E5        30.13S
ELBOW LAKE     FAIR      71  63  78 NE5       30.14R HAZE
MORRIS MN      FAIR      73  64  73 CALM      30.12S
STAPLES        FAIR      68  61  77 CALM      30.13S
WHEATON        FAIR      70  63  78 NW5       30.15S
$$
  *****  WEATHER ELSEWHERE ACROSS MINNESOTA  *****

CITY           SKY/WX    TMP DP  RH WIND       PRES   REMARKS
DULUTH         FAIR      72  63  73 CALM      30.10R
INTRNTL FALLS  FAIR      71  62  73 CALM      30.11R
ELY            FAIR      68  57  68 CALM      30.11S
CLOQUET        FAIR      72  57  60 CALM      30.11R
BRAINERD       FAIR      70  62  76 N5        30.12R
HIBBING        FAIR      68  62  81 CALM      30.11R
ALEXANDRIA     FAIR      72  62  71 NE5       30.15R
SAINT CLOUD    FAIR      72  64  76 N3        30.11R
MINNEAPOLIS    FAIR      75  61  61 NE5       30.07S
$$

  *****  WEATHER ACROSS SOUTH DAKOTA  *****

CITY           SKY/WX    TMP DP  RH WIND       PRES   REMARKS
SIOUX FALLS    FAIR      70  64  81 N5        30.13S
BROOKINGS      FAIR      68  62  81 N5        30.15S
WATERTOWN      FAIR      70  61  73 N3        30.15R
HURON          FAIR      70  63  78 CALM      30.15R
SISSETON         N/A     71  63  75 NW7       30.14R
ABERDEEN       FAIR      69  63  81 CALM      30.15S
MITCHELL       FAIR      71  64  78 N5        30.14F
PIERRE         FAIR      71  58  63 SE5       30.13S
MOBRIDGE       FAIR      72  62  71 SE9       30.13S
RAPID CITY     FAIR      73  60  63 S10       30.15S
$$

  *****  SOME WEATHER IN NEARBY STATES *****

CITY           SKY/WX    TMP DP  RH WIND       PRES   REMARKS
GLASGOW MT     FAIR      72  51  47 E25G32    29.98S
GREAT FALLS MT PTSUNNY   71  43  36 NW9       30.05R
CHEYENNE WY    CLOUDY    65  58  78 S9        30.30R
SCOTTSBLUFF NE FAIR      70  66  87 SE16      30.19S
OMAHA NE       FAIR      72  65  78 N9        30.06R
DES MOINES IA  FAIR      76  68  76 N12       30.01R
DAVENPORT IA   CLOUDY    72  70  93 NE7       30.00R
CHICAGO IL     PTSUNNY   77  68  73 NE13      29.94R
EAU CLAIRE WI  FAIR      72  62  71 NE5       30.05S
LA CROSSE WI   FAIR      74  67  78 NW3       30.03S
$$

  *****  SOME NATIONAL WEATHER *****

CITY           SKY/WX    TMP DP  RH WIND       PRES   REMARKS
LA GUARDIA NY  CLOUDY    75  62  64 W13       30.02F
RALEIGH NC     PTSUNNY   82  69  64 W12       30.09S
ATLANTA GA     FAIR      81  73  76 CALM      30.11S
NEW ORLEANS LA FAIR      85  77  77 N8        30.07S HX  95
OKLAHOMA CITY  PTSUNNY   82  66  58 S14       29.98S
ALBUQUERQUE NM PTSUNNY   71  62  73 E7        30.24R
SALT LAKE CITY FAIR      70  59  68 SE3       30.18S
LOS ANGELES CA FAIR      67  64  90 SW6       29.97S
BOISE ID       FAIR      69  52  54 SE3       30.10R
SEATTLE WA     DRIZZLE   57  54  89 SW5       30.14S
$$

*** WEATHER ACROSS MANITOBA...SASKATCHEWAN AND ONTARIO ***
                ***ONTARIO***

CITY           SKY/WX    TMP DP  RH WIND       PRES   REMARKS
GERALDTON      MOSUNNY   68  50  52 S7        30.10R
THUNDER BAY    SUNNY     70  57  64 S3        30.09R
SIOUX LOOKOUT  MOSUNNY   70  63  78 VRB2      30.10S
TORONTO        CLOUDY    68  66  94 CALM      29.95F
BIG TROUT LK   CLOUDY    63  55  77 SW7       30.09S
PICKLE LAKE    MOSUNNY   66  52  59 CALM      30.12R
DRYDEN         SUNNY     70  59  68 CALM      30.11R
KENORA         MOSUNNY   72  59  64 CALM      30.12R
$$
                *** MANITOBA***

CITY           SKY/WX    TMP DP  RH WIND       PRES   REMARKS
BRANDON        MOSUNNY   70  61  73 W3        30.13F
DAUPHIN        SUNNY     68  63  83 NW5       30.10R
ISLAND LAKE    PTSUNNY   68  57  68 S7        30.06
PILOT MOUND      N/A     68  61  77 SW3         N/A
THE PAS        MOSUNNY   73  61  64 SW5       30.05S
THOMPSON       PTSUNNY   64  63  94 VRB2      30.00S
WINNIPEG       SUNNY     70  64  83 CALM      30.11S
LYNN LAKE      SUNNY     68  61  77 SW8       29.96S
CHURCHILL      MOSUNNY   64  52  63 E14G20    29.96S
GILLAM         MOSUNNY   68  59  73 SW3       29.99S
$$
                ***SASKATCHEWAN***

CITY           SKY/WX    TMP DP  RH WIND       PRES   REMARKS
ESTEVAN        MOSUNNY   72  59  64 S12       30.09F
KINDERSLEY     MOSUNNY   66  52  59 S12       29.97S
LLOYDMINSTER   PTSUNNY   63  54  72 SE6       29.94F
PRINCE ALBERT  MOSUNNY   63  59  88 E3        30.04F
REGINA         MOSUNNY   66  54  63 SE12      30.06F
YORKTON        SUNNY     66  57  72 S7        30.10S


USA.gov is the U.S. government's official web portal to all federal, state and local government web resources and services.